When you browse on this site, cookies collect data to enhance your experience and personalize the content and advertising you see.
Visit our Privacy Policy to learn more. By continuing to use the site, you agree to this use of cookies and data.

Stündliche Wetter Borisovskie Vyselki

Heute, 3 Juli, Freitag

Zeit Temperatur Niederschläge Wind Luftdruck Luftfeuchtigkeit
00:00 +19°C° 0 mm 2 m/S 741 mmHg 88%
01:00 +19°C° 0 mm 3 m/S 741 mmHg 90%
02:00 +18°C° 0 mm 3 m/S 741 mmHg 91%
03:00 +18°C° 0 mm 3 m/S 741 mmHg 91%
04:00 +19°C° 0 mm 3 m/S 741 mmHg 90%
05:00 +19°C° 0 mm 3 m/S 741 mmHg 90%
06:00 +19°C° 0 mm 3 m/S 741 mmHg 90%
07:00 +21°C° 0.2 mm 3 m/S 741 mmHg 87%
08:00 +22°C° 0.2 mm 3 m/S 742 mmHg 84%
09:00 +25°C° 0 mm 3 m/S 742 mmHg 81%
10:00 +26°C° 0.3 mm 4 m/S 742 mmHg 78%
11:00 +26°C° 0.3 mm 4 m/S 742 mmHg 75%
12:00 +27°C° 0.3 mm 4 m/S 742 mmHg 71%
13:00 +27°C° 0.7 mm 4 m/S 742 mmHg 71%
14:00 +28°C° 0.7 mm 4 m/S 742 mmHg 71%
15:00 +28°C° 0 mm 4 m/S 742 mmHg 73%
16:00 +27°C° 0.9 mm 3 m/S 742 mmHg 75%
17:00 +27°C° 0.9 mm 3 m/S 742 mmHg 77%
18:00 +27°C° 0.9 mm 2 m/S 742 mmHg 79%
19:00 +26°C° 0.2 mm 2 m/S 742 mmHg 80%
20:00 +24°C° 0.2 mm 2 m/S 742 mmHg 82%
21:00 +23°C° 0.2 mm 2 m/S 742 mmHg 83%
22:00 +21°C° 0 mm 2 m/S 742 mmHg 83%
23:00 +21°C° 0 mm 2 m/S 742 mmHg 83%

Morgen, 4 Juli, Samstag

Zeit Temperatur Niederschläge Wind Luftdruck Luftfeuchtigkeit
00:00 +20°C° 0 mm 2 m/S 741 mmHg 83%
01:00 +20°C° 0 mm 2 m/S 742 mmHg 84%
02:00 +19°C° 0 mm 2 m/S 742 mmHg 85%
03:00 +19°C° 0 mm 2 m/S 742 mmHg 86%
04:00 +19°C° 0 mm 2 m/S 741 mmHg 87%
05:00 +20°C° 0 mm 2 m/S 741 mmHg 88%
06:00 +21°C° 0 mm 1 m/S 741 mmHg 88%
07:00 +23°C° 0 mm 2 m/S 741 mmHg 85%
08:00 +24°C° 0 mm 2 m/S 741 mmHg 82%
09:00 +26°C° 0 mm 3 m/S 741 mmHg 79%
10:00 +27°C° 0.1 mm 3 m/S 741 mmHg 74%
11:00 +28°C° 0.1 mm 3 m/S 741 mmHg 69%
12:00 +29°C° 0.1 mm 3 m/S 741 mmHg 64%
13:00 +29°C° 1 mm 3 m/S 741 mmHg 66%
14:00 +29°C° 1 mm 4 m/S 741 mmHg 68%
15:00 +29°C° 1 mm 4 m/S 741 mmHg 70%
16:00 +28°C° 0.6 mm 3 m/S 740 mmHg 73%
17:00 +28°C° 0.6 mm 3 m/S 740 mmHg 77%
18:00 +27°C° 0.6 mm 2 m/S 740 mmHg 80%
19:00 +26°C° 0.2 mm 2 m/S 740 mmHg 82%
20:00 +25°C° 0.2 mm 2 m/S 740 mmHg 84%
21:00 +23°C° 0.2 mm 1 m/S 740 mmHg 86%
22:00 +23°C° 0.1 mm 2 m/S 740 mmHg 87%
23:00 +21°C° 0.1 mm 2 m/S 740 mmHg 88%

übermorgen, 5 Juli, Sonntag

Zeit Temperatur Niederschläge Wind Luftdruck Luftfeuchtigkeit
00:00 +21°C° 0.1 mm 2 m/S 740 mmHg 89%
01:00 +20°C° 0 mm 2 m/S 740 mmHg 89%
02:00 +20°C° 0 mm 2 m/S 740 mmHg 89%
03:00 +20°C° 0 mm 2 m/S 740 mmHg 90%
04:00 +21°C° 0 mm 1 m/S 740 mmHg 90%
05:00 +21°C° 0 mm 1 m/S 740 mmHg 89%
06:00 +22°C° 0 mm 1 m/S 740 mmHg 89%
07:00 +22°C° 0 mm 1 m/S 740 mmHg 87%
08:00 +23°C° 0 mm 2 m/S 740 mmHg 84%
09:00 +24°C° 0 mm 2 m/S 740 mmHg 82%
10:00 +25°C° 0 mm 2 m/S 740 mmHg 78%
11:00 +26°C° 0 mm 2 m/S 740 mmHg 74%
12:00 +27°C° 0 mm 2 m/S 740 mmHg 70%
13:00 +26°C° 1 mm 2 m/S 740 mmHg 75%
14:00 +25°C° 1 mm 2 m/S 740 mmHg 79%
15:00 +24°C° 1 mm 2 m/S 740 mmHg 84%
16:00 +24°C° 0 mm 2 m/S 740 mmHg 82%
17:00 +24°C° 0 mm 2 m/S 740 mmHg 81%
18:00 +24°C° 0 mm 1 m/S 739 mmHg 79%
19:00 +24°C° 0 mm 1 m/S 739 mmHg 81%
20:00 +23°C° 0 mm 2 m/S 740 mmHg 83%
21:00 +21°C° 0 mm 2 m/S 740 mmHg 84%
22:00 +20°C° 0 mm 2 m/S 740 mmHg 86%
23:00 +21°C° 0 mm 1 m/S 740 mmHg 87%

6 Juli, Montag

Zeit Temperatur Niederschläge Wind Luftdruck Luftfeuchtigkeit
00:00 +20°C° 0 mm 1 m/S 739 mmHg 89%
01:00 +20°C° 0 mm 1 m/S 740 mmHg 89%
02:00 +19°C° 0 mm 1 m/S 740 mmHg 90%
03:00 +17°C° 0 mm 0 m/S 740 mmHg 91%
04:00 +19°C° 0 mm 1 m/S 740 mmHg 90%
05:00 +20°C° 0 mm 1 m/S 740 mmHg 89%
06:00 +21°C° 0 mm 1 m/S 740 mmHg 89%
07:00 +22°C° 0 mm 1 m/S 740 mmHg 84%
08:00 +23°C° 0 mm 1 m/S 740 mmHg 79%
09:00 +23°C° 0 mm 0 m/S 740 mmHg 74%
10:00 +26°C° 0 mm 1 m/S 740 mmHg 70%
11:00 +27°C° 0 mm 1 m/S 740 mmHg 67%
12:00 +28°C° 0 mm 1 m/S 740 mmHg 63%
13:00 +28°C° 0 mm 1 m/S 740 mmHg 63%
14:00 +28°C° 0 mm 1 m/S 740 mmHg 62%
15:00 +29°C° 0 mm 2 m/S 740 mmHg 61%
16:00 +29°C° 0.1 mm 1 m/S 739 mmHg 63%
17:00 +29°C° 0.1 mm 1 m/S 739 mmHg 65%
18:00 +29°C° 0.1 mm 1 m/S 739 mmHg 67%
19:00 +27°C° 0 mm 1 m/S 739 mmHg 71%
20:00 +26°C° 0 mm 1 m/S 739 mmHg 75%
21:00 +24°C° 0 mm 1 m/S 739 mmHg 79%
22:00 +23°C° 0 mm 1 m/S 739 mmHg 81%
23:00 +23°C° 0 mm 2 m/S 739 mmHg 83%

7 Juli, Dienstag

Zeit Temperatur Niederschläge Wind Luftdruck Luftfeuchtigkeit
00:00 +21°C° 0 mm 2 m/S 738 mmHg 85%
01:00 +21°C° 0 mm 2 m/S 738 mmHg 85%
02:00 +20°C° 0 mm 2 m/S 738 mmHg 85%
03:00 +20°C° 0 mm 2 m/S 738 mmHg 85%
04:00 +20°C° 0 mm 2 m/S 738 mmHg 84%
05:00 +21°C° 0 mm 2 m/S 738 mmHg 84%
06:00 +21°C° 0 mm 2 m/S 738 mmHg 83%
07:00 +23°C° 0 mm 2 m/S 738 mmHg 79%
08:00 +25°C° 0 mm 3 m/S 738 mmHg 76%
09:00 +26°C° 0 mm 3 m/S 738 mmHg 72%
10:00 +27°C° 0 mm 3 m/S 738 mmHg 68%
11:00 +29°C° 0 mm 2 m/S 738 mmHg 64%
12:00 +30°C° 0 mm 2 m/S 737 mmHg 60%
13:00 +30°C° 0 mm 3 m/S 737 mmHg 62%
14:00 +30°C° 0 mm 3 m/S 737 mmHg 63%
15:00 +30°C° 0 mm 4 m/S 737 mmHg 64%
16:00 +30°C° 0 mm 3 m/S 737 mmHg 67%
17:00 +31°C° 0 mm 2 m/S 736 mmHg 70%
18:00 +31°C° 0 mm 2 m/S 736 mmHg 72%
19:00 +29°C° 0.1 mm 2 m/S 736 mmHg 75%
20:00 +27°C° 0.1 mm 2 m/S 736 mmHg 77%
21:00 +26°C° 0.1 mm 1 m/S 736 mmHg 80%
22:00 +25°C° 0.1 mm 2 m/S 736 mmHg 79%
23:00 +24°C° 0.1 mm 2 m/S 736 mmHg 78%

8 Juli, Mittwoch

Zeit Temperatur Niederschläge Wind Luftdruck Luftfeuchtigkeit
00:00 +24°C° 0.1 mm 2 m/S 736 mmHg 77%
01:00 +23°C° 0.1 mm 2 m/S 736 mmHg 76%
02:00 +21°C° 0.1 mm 2 m/S 735 mmHg 75%
03:00 +21°C° 0.1 mm 2 m/S 735 mmHg 74%
04:00 +21°C° 0.3 mm 2 m/S 735 mmHg 78%
05:00 +21°C° 0.3 mm 2 m/S 735 mmHg 82%
06:00 +22°C° 0.3 mm 1 m/S 735 mmHg 86%
07:00 +21°C° 0.2 mm 2 m/S 736 mmHg 84%
08:00 +23°C° 0.2 mm 2 m/S 736 mmHg 82%
09:00 +24°C° 0.2 mm 2 m/S 736 mmHg 81%
10:00 +25°C° 0 mm 2 m/S 736 mmHg 79%
11:00 +26°C° 0 mm 3 m/S 736 mmHg 77%
12:00 +26°C° 0 mm 3 m/S 737 mmHg 76%
13:00 +26°C° 0 mm 4 m/S 737 mmHg 78%
14:00 +26°C° 0 mm 5 m/S 737 mmHg 79%
15:00 +25°C° 0 mm 5 m/S 737 mmHg 81%
16:00 +25°C° 0 mm 5 m/S 737 mmHg 82%
17:00 +23°C° 0 mm 5 m/S 737 mmHg 82%
18:00 +23°C° 0 mm 5 m/S 737 mmHg 83%
19:00 +22°C° 0 mm 4 m/S 737 mmHg 85%
20:00 +21°C° 0 mm 3 m/S 738 mmHg 87%
21:00 +20°C° 0 mm 2 m/S 738 mmHg 89%
22:00 +19°C° 0.2 mm 3 m/S 738 mmHg 87%
23:00 +19°C° 0.2 mm 4 m/S 738 mmHg 86%
Mehr zeigen